7 * 24
多渠道服务支持
IRIDIUM 29 是 Iridium 卫星星座计划中的一颗低轨通信卫星,由美国 Iridium 公司运营,主要用于提供全球范围的移动卫星通信服务。该卫星运行在约 780 公里的近极地轨道,与其他 Iridium 卫星共同构建了一个覆盖全球的语音和数据通信网络。IRIDIUM 29 在航空、航海、应急通信等领域具有广泛应用,支持抗干扰、低延迟的通信能力,是现代全球通信基础设施的重要组成部分。
美国
(US)
| 数据来源 | 国际轨道数据 |
| 星历时间: | 2025-12-13T06:39:56+0800 11小时前 查看轨道信息 |
| 半长轴: | 7147.682km |
| 偏心率: | 0.0002286 |
| 轨道倾角: | 86.395° |
| 近地点辐角 | 92.641° |
| 升交点赤经 | 68.858° |
| 平近点角 | 267.505° |
| 近地点: | 767.913km |
| 远地点: | 771.181km |
| 周期: | 100.232分钟 |
| 每日圈数: | 14.366631 |